Other Public Products
Issued by NWS Grand Forks, ND

Home | Current Version | Previous Version | Text Only | Print | Product List | Glossary On
Versions: 1 2 3 4 5 6 7 8 9 10 11 12 13 14 15 16 17 18 19 20 21 22 23 24 25 26 27 28 29 30 31 32 33 34 35 36 37 38 39 40 41 42 43 44 45 46 47 48 49 50
000
FPUS83 KFGF 292310
OPUFGF
PRAIRIE TO PINES WEATHER ROUNDUP
NATIONAL WEATHER SERVICE EASTERN NORTH DAKOTA/GRAND FORKS ND
600 PM CDT WED MAR 29 2017

 **SATELLITE DATA USED TO AUGMENT SKY COVER AT AUTOMATED STATIONS**
 *****  WEATHER ACROSS EASTERN NORTH DAKOTA  *****

CITY           SKY/WX    TMP DP  RH WIND       PRES   REMARKS
GRAND FORKS    FAIR      61  44  53 S13       30.01F
GRAND FORKS AF FAIR      59  42  53 S13       30.00F
GRAND CITY NWS NOT AVBL
BUXTON         NOT AVBL
DEVILS LAKE    CLOUDY    56  39  53 SW10      29.97F
FARGO          FAIR      59  39  47 SE14      30.04F
WAHPETON ARPT  FAIR      55  32  41 SE17      30.08S
$$

 *****  WEATHER ACROSS CENTRAL AND WESTERN NORTH DAKOTA  *****

CITY           SKY/WX    TMP DP  RH WIND       PRES   REMARKS
JAMESTOWN      FAIR      60  31  33 S13       29.99S
BISMARCK       CLOUDY    63  37  38 S12       29.94F
MINOT          CLOUDY    52  44  74 NW15      29.89S
MINOT AFB      LGT RAIN  48  45  89 N6        29.88F
GARRISON         N/A     53  38  56 S5        29.89F
WILLISTON      FAIR      62  28  27 W13       29.87F
DICKINSON      PTSUNNY   62  25  24 W17       29.87F
HETTINGER      PTSUNNY   61  33  35 SE8       29.92F
$$

 *****  OTHER OBSERVATIONS NORTHEAST NORTH DAKOTA  *****

CITY           SKY/WX    TMP DP  RH WIND       PRES   REMARKS
WALHALLA       NOT AVBL
LANGDON        FAIR      52  46  82 S13       29.97F
CAVALIER       MOCLDY    55  46  71 S10       29.98S
GRAFTON        FAIR      59  43  55 S15       30.02S
CANDO          NOT AVBL
FORT TOTTEN      N/A     58  38  48 S8        29.95S
ROLLA          MOCLDY    45  45 100 S12       29.94S
RUGBY          NOT AVBL
 ***** THE ABOVE OBSERVATIONS ARE NON NWS ARE NOT QUALITY
        CONTROLLED AND MAY MIS-REPORT RAIN FOR SNOW...
$$

 *****  OTHER OBSERVATIONS SOUTHEAST NORTH DAKOTA *****

CITY           SKY/WX    TMP DP  RH WIND       PRES   REMARKS
COOPERSTOWN    FAIR      59  39  47 S13G18    30.00F
VALLEY CITY    FAIR      61  30  31 S15G26    30.02S
OAKES          NOT AVBL
GWINNER        CLEAR     61  28  29 MISG      30.03S
SHEYENNE NWR     N/A     60  27  28 S14       29.95S
BUFFALO        NOT AVBL
WYNDMERE       NOT AVBL
 ***** THE ABOVE OBSERVATIONS ARE NON NWS ARE NOT QUALITY
       CONTROLLED AND MAY MIS-REPORT RAIN FOR SNOW...
$$

  *****  WEATHER ACROSS NORTHERN MINNESOTA  *****

CITY           SKY/WX    TMP DP  RH WIND       PRES   REMARKS
FLAG ISLAND    FAIR      50  30  46 SE10      30.04F
WARROAD        FAIR      59  41  51 S9        30.04F
ROSEAU         FAIR      59  43  55 S13       30.03F
HALLOCK        FAIR      57  48  72 S13       30.01F
THF RVR FALLS  FAIR      57  40  52 S14       30.05F
HALSTAD          N/A     57  41  55 S18         N/A
FOSSTON        FAIR      57  34  41 S14       30.07F
BAUDETTE       FAIR      58  32  37 S15       30.07S
WASKISH        CLOUDY    55  32  41 S8        30.10S
CROOKSTON      FAIR      59  39  47 S15       30.04S
$$
  *****  WEATHER ACROSS CENTRAL AND WEST MINNESOTA  *****

CITY           SKY/WX    TMP DP  RH WIND       PRES   REMARKS
BEMIDJI        FAIR      54  32  44 E13       30.10S
PARK RAPIDS    FAIR      55  26  32 S12       30.10F
WADENA         FAIR      52  34  50 SE10      30.11S
DETROIT LAKES  FAIR      54  28  37 S15       30.09F
MOORHEAD       FAIR      57  39  51 S16       30.07F
FERGUS FALLS   FAIR      55  30  38 S16       30.12S
ELBOW LAKE     FAIR      53  34  49 S15       30.11S
MORRIS MN      FAIR      52  37  58 S16       30.11R
STAPLES        FAIR      52  28  40 S6        30.13S
WHEATON        FAIR      54  34  47 SE16      30.10S
$$
  *****  WEATHER ELSEWHERE ACROSS MINNESOTA  *****

CITY           SKY/WX    TMP DP  RH WIND       PRES   REMARKS
DULUTH         FAIR      35  29  78 E7        30.21F
INTRNTL FALLS  FAIR      53  29  39 VRB7G18   30.12F
ELY            FAIR      41  25  52 SE8       30.21S
CLOQUET        FAIR      36  28  75 E8        30.21F
BRAINERD       FAIR      49  31  49 SE9       30.15F
HIBBING        FAIR      43  29  57 SE9       30.18F
ALEXANDRIA     FAIR      51  34  52 S14       30.12F
SAINT CLOUD    PTSUNNY   49  36  61 SE12      30.15S
MINNEAPOLIS    CLOUDY    47  37  68 SE7       30.17S
$$

  *****  WEATHER ACROSS SOUTH DAKOTA  *****

CITY           SKY/WX    TMP DP  RH WIND       PRES   REMARKS
SIOUX FALLS    LGT RAIN  42  41  96 E16G23    30.04F
BROOKINGS      CLOUDY    44  36  73 E18G26    30.06F
WATERTOWN      FAIR      48  35  60 SE15      30.07S
HURON          PTSUNNY   53  36  52 E15       30.04S
SISSETON         N/A     56  36  47 S21G26    30.06S
ABERDEEN       FAIR      58  32  37 SE15      30.03F
MITCHELL       CLOUDY    50  36  58 E21       30.04F
PIERRE         FAIR      57  34  41 SE17      29.98F
MOBRIDGE       FAIR      63  27  25 S7        29.95F
RAPID CITY     FAIR      54  37  52 NE5       29.97S
$$

  *****  SOME WEATHER IN NEARBY STATES *****

CITY           SKY/WX    TMP DP  RH WIND       PRES   REMARKS
GLASGOW MT     FAIR      60  27  28 SW9       29.85F
GREAT FALLS MT FAIR      58  33  39 SW23G36   29.81F
CHEYENNE WY    FAIR      53  25  33 NW18G28   29.98F
SCOTTSBLUFF NE FAIR      59  37  44 N14       29.94F
OMAHA NE       LGT RAIN  44  39  82 NE23G30   29.86F FOG
DES MOINES IA  LGT RAIN  45  43  93 E13G24    29.89S FOG
DAVENPORT IA   LGT RAIN  44  41  89 NE21      29.98F FOG
CHICAGO IL     CLOUDY    47  34  60 NE18      30.06F
EAU CLAIRE WI  CLOUDY    49  33  54 E9        30.17F
LA CROSSE WI   LGT RAIN  47  38  71 NE9G17    30.15F
$$

  *****  SOME NATIONAL WEATHER *****

CITY           SKY/WX    TMP DP  RH WIND       PRES   REMARKS
LA GUARDIA NY  FAIR      54  24  31 N18       30.11R
RALEIGH NC     MOCLDY    70  50  49 CALM      30.07R
ATLANTA GA     FAIR      82  54  37 CALM      29.97F
NEW ORLEANS LA CLOUDY    77  67  71 S13       29.90R
OKLAHOMA CITY  PTSUNNY   56  42  59 W20       29.75R
ALBUQUERQUE NM PTSUNNY   60  32  34 NW9       29.97S
SALT LAKE CITY FAIR      57  31  37 NW7       30.14F
LOS ANGELES CA FAIR      73  45  36 W12       30.01S
BOISE ID       FAIR      60  38  43 E16       30.01F
SEATTLE WA     PTSUNNY   54  50  86 SW22G29   29.88S
$$

*** WEATHER ACROSS MANITOBA...SASKATCHEWAN AND ONTARIO ***
                ***ONTARIO***

CITY           SKY/WX    TMP DP  RH WIND       PRES   REMARKS
GERALDTON      MOSUNNY   41  16  36 SE6       30.32S
THUNDER BAY    CLOUDY    34  27  75 E10       30.33F
SIOUX LOOKOUT  PTSUNNY   48  25  40 S7        30.16F
TORONTO        CLOUDY    45  27  49 SE5       30.27S
BIG TROUT LK   CLOUDY    36  21  55 SE9       30.23F
PICKLE LAKE    PTSUNNY   39  19  45 SE14      30.21F
DRYDEN         PTSUNNY   48  27  43 SE16G22   30.12F
KENORA         PTSUNNY   50  30  46 SE10G21   30.06F
$$
                *** MANITOBA***

CITY           SKY/WX    TMP DP  RH WIND       PRES   REMARKS
BRANDON        CLOUDY    46  43  87 SE8       29.91F
DAUPHIN        PTSUNNY   41  37  87 SE10      29.87F
ISLAND LAKE    CLOUDY    37  27  65 SE10      30.05
PILOT MOUND      N/A     41  39  93 SE8         N/A
THE PAS        CLOUDY    37  32  81 E9        29.89F
THOMPSON       CLOUDY    41  19  42 SE3       30.00F
WINNIPEG       CLOUDY    52  45  76 S13       29.98F
LYNN LAKE      CLOUDY    39  27  60 E10       29.93F
CHURCHILL      MOSUNNY   25  18  74 S12       30.16F WCI  14
GILLAM         MOSUNNY   43  19  39 SE9       30.09F
$$
                ***SASKATCHEWAN***

CITY           SKY/WX    TMP DP  RH WIND       PRES   REMARKS
ESTEVAN        PTSUNNY   59  28  31 W10       29.84F
KINDERSLEY     PTSUNNY   57  21  24 S3        29.75F
LLOYDMINSTER   PTSUNNY   39  37  93 NE7       29.78F FOG
PRINCE ALBERT  CLOUDY    41  34  75 N8        29.82S
REGINA         MOSUNNY   61  25  25 W16       29.78F
YORKTON        SUNNY     50  43  76 SE12      29.79F


USA.gov is the U.S. government's official web portal to all federal, state and local government web resources and services.